Starlink 11350

operational
NORAD ID: 61540 Int'l Des: 2024-184 Owner: SPXS Country: US Constellation: starlink
LEOCIRCULAR

Über Starlink 11350

Beschreibung wird geladen...

Live-Position

3D-Globus wird geladen...

Nächste Überflüge

Höhenverlauf

Altitude vs Time

uPlot chart will show altitude changes over time

Zweizeiliger Elementsatz

1 61540U 24184J 26035.39909412 .00000259 00000-0 69982-5 0 9993
2 61540 53.1595 40.0090 0001402 83.6600 276.4578 15.69701316 75199
Epoch: 4. Feb. 2026 • Age: 27 hours

Aktueller Status

Höhe 379.2 km
Geschwindigkeit 7.68 km/s
Subsatellitenpunkt -53.31°S, 22.03°W
Startdatum 15. Okt. 2024
Alter 1.3 years
Typ internet

Technische Details

Klassifizierung Payload
Masse 960.00 kg
Trockenmasse 910.00 kg
Gesamtmasse 960.00 kg
Länge 0.30 m
Durchmesser 4.10 m
Spannweite 29.00 m
Form Box + pan
Hersteller SPXS
Bus-Typ Starlink V2MD
Phasenstatus In Orbit
Besitzer/Staat SPXS/US

Große Konstellationen

Loading constellations...